Вернуться в каталог

STARLINK-35758

АктивенСвязьVLEO
NORAD 66229·PAYLOAD·🇺🇸 United States

Запущен Oct 28, 2025 с Vandenberg Space Force Base

Loading…

Ближайшие Пролёты (ближайшие 24 часа)

TLE

СвежийSource: CelesTrak SupGP

Эпоха: Sep 14, 2026, 22:28 UTC

1 66229C 25244Z   26257.93659722  .00056738  00000+0  16764-2 0  2578
2 66229  53.1581  67.5326 0001257  79.2583 192.7497 15.34362054    11

Отслеживайте STARLINK-35758 в реальном времени с AllMySat

Download on the App Store